Elsenborn, Belgium

7:48 PM CEST on April 19, 2018 (GMT +0200)
Elsenborn

Weather History for EBLB - May, 2013

Change the Weather History Date:

Tuesday, May 21, 2013

  Actual Average Record
Temperature  
Mean Temperature 49 °F -  
Max Temperature 54 °F 57 °F 77 °F (2007)
Min Temperature 44 °F 46 °F 30 °F (2015)
Degree Days  
Heating Degree Days 16    
Moisture  
Dew Point 45 °F    
Average Humidity 91    
Maximum Humidity 100    
Minimum Humidity 67    
Precipitation  
Precipitation 0.02 in - - ()
Sea Level Pressure  
Sea Level Pressure 29.82 in    
Wind  
Wind Speed 5 mph ()    
Max Wind Speed 11 mph    
Max Gust Speed -    
Visibility 4.7 miles    
Events Fog , Rain    
Averages and records for this station are not official NWS values.
T = Trace of Precipitation, MM = Missing Value Source: Averaged Metar Reports

Daily Weather History Graph

Daily Weather History Graph

Search for Another Location

Airport or City:

Astronomy

May. 21, 2013 Rise Set
Actual Time 5:39 AM CEST 9:24 PM CEST
Civil Twilight 4:58 AM CEST 10:06 PM CEST
Nautical Twilight 4:01 AM CEST 11:03 PM CEST
Astronomical Twilight 2:34 AM CEST 12:33 AM CEST
Moon 4:57 PM CEST (5/21) 3:25 AM CEST (5/21)
Length of Visible Light 17h 08m
Length of Day
15h 45m
Waxing Gibbous, 81% of the Moon is Illuminated
May 21
Waxing Gibbous
May 25
Full
May 31
Last Quarter
Jun 8
New
Jun 16
First Quarter

Hourly Weather History & Observations

Time (CEST) Temp. Windchill Dew Point Humidity Pressure Visibility Wind Dir Wind Speed Gust Speed Precip Events Conditions
12:25 AM 46.4 °F 42.9 °F 44.6 °F 93% 29.80 in 6.2 mi South 6.9 mph - N/A   Overcast
1:25 AM 46.4 °F 45.2 °F 42.8 °F 87% 29.80 in 6.2 mi Variable 3.5 mph - N/A   Overcast
2:00 AM 46 °F - 44 °F 89% 29.83 in 6 mi 4.5 mph - -   Partly Cloudy
2:25 AM 44.6 °F - 44.6 °F 100% 29.80 in 1.8 mi Variable 2.3 mph - N/A   Overcast
3:25 AM 44.6 °F 43.1 °F 44.6 °F 100% 29.80 in 6.2 mi Variable 3.5 mph - N/A   Overcast
4:25 AM 44.6 °F - 44.6 °F 100% 29.80 in - Variable 1.2 mph - N/A   Overcast
5:00 AM 46 °F - 45 °F 94% 29.81 in 2 mi Calm Calm - -   Mist
5:01 AM 46.4 °F - 44.6 °F 93% 29.77 in - Calm Calm - N/A Rain Light Rain Showers
5:25 AM 46.4 °F - 44.6 °F 93% 29.77 in 6.2 mi Calm Calm - N/A   Overcast
5:31 AM 46.4 °F - 44.6 °F 93% 29.77 in 4.3 mi Calm Calm - N/A   Overcast
5:51 AM 46.4 °F - 44.6 °F 93% 29.77 in - Variable 1.2 mph - N/A   Overcast
6:25 AM 46.4 °F 45.2 °F 44.6 °F 93% 29.77 in 0.6 mi Variable 3.5 mph - N/A Fog Fog
6:32 AM 46.4 °F - 44.6 °F 93% 29.77 in 0.4 mi Variable 2.3 mph - N/A Fog Fog
6:52 AM 46.4 °F - 46.4 °F 100% 29.77 in 0.5 mi Variable 2.3 mph - N/A Fog Fog
7:06 AM 46.4 °F - 46.4 °F 100% 29.77 in - Variable 2.3 mph - N/A   Mostly Cloudy
7:11 AM 46.4 °F - 46.4 °F 100% 29.80 in - Variable 2.3 mph - N/A   Mostly Cloudy
7:25 AM 46.4 °F 45.2 °F 46.4 °F 100% 29.80 in 1.0 mi Variable 3.5 mph - N/A   Overcast
7:51 AM 46.4 °F - 46.4 °F 100% 29.80 in 1.3 mi Variable 2.3 mph - N/A   Mostly Cloudy
8:00 AM 47 °F - 46 °F 95% 29.81 in 1 mi 2.2 mph - - Rain Light Drizzle
8:25 AM 46.4 °F 44.3 °F 46.4 °F 100% 29.80 in 1.9 mi South 4.6 mph - N/A   Light Drizzle
9:25 AM 48.2 °F - 46.4 °F 93% 29.80 in 6.2 mi Variable 2.3 mph - N/A   Mostly Cloudy
10:21 AM 48.2 °F - 46.4 °F 93% 29.80 in 6.2 mi SW 4.6 mph - N/A   Mostly Cloudy
10:25 AM 48.2 °F - 46.4 °F 93% 29.80 in 6.2 mi SW 4.6 mph - N/A Rain Light Rain
10:31 AM 48.2 °F - 46.4 °F 93% 29.80 in 3.1 mi SW 6.9 mph - N/A Rain Light Rain
10:41 AM 48.2 °F - 46.4 °F 93% 29.80 in 3.7 mi SW 6.9 mph - N/A Rain Light Rain
11:00 AM 48 °F - 46 °F 89% 29.83 in 4 mi SW 4.5 mph - - Rain Light Rain
11:20 AM 48.2 °F - 46.4 °F 93% 29.83 in 5.0 mi WSW 4.6 mph - N/A   Mostly Cloudy
11:25 AM 48.2 °F - 44.6 °F 87% 29.83 in 5.0 mi WSW 4.6 mph - N/A   Mostly Cloudy
12:01 PM 50.0 °F - 46.4 °F 87% 29.83 in 6.2 mi Variable 3.5 mph - N/A Rain Light Rain
12:11 PM 50.0 °F - 44.6 °F 82% 29.83 in 6.2 mi SW 5.8 mph - N/A   Mostly Cloudy
12:16 PM 50.0 °F - 46.4 °F 87% 29.83 in 6.2 mi WSW 5.8 mph - N/A   Mostly Cloudy
12:25 PM 50.0 °F - 46.4 °F 87% 29.83 in 6.2 mi West 5.8 mph - N/A   Mostly Cloudy
12:31 PM 50.0 °F - 46.4 °F 87% 29.83 in 6.2 mi WSW 6.9 mph - N/A   Mostly Cloudy
12:41 PM 50.0 °F - 44.6 °F 82% 29.83 in 6.2 mi West 5.8 mph - N/A   Mostly Cloudy
1:25 PM 51.8 °F - 44.6 °F 76% 29.83 in 6.2 mi WSW 4.6 mph - N/A   Mostly Cloudy
2:00 PM 52 °F - 44 °F 68% 29.83 in 25 mi WSW 4.5 mph - -   Partly Cloudy
2:06 PM 53.6 °F - 46.4 °F 77% 29.83 in 6.2 mi Variable 3.5 mph - N/A   Mostly Cloudy
2:16 PM 53.6 °F - 44.6 °F 72% 29.83 in 6.2 mi West 5.8 mph - N/A   Mostly Cloudy
2:25 PM 53.6 °F - 42.8 °F 67% 29.83 in 6.2 mi West 5.8 mph - N/A   Mostly Cloudy
3:25 PM 51.8 °F - 44.6 °F 76% 29.83 in 6.2 mi West 8.1 mph - N/A   Mostly Cloudy
4:25 PM 50.0 °F - 46.4 °F 87% 29.83 in 6.2 mi WNW 6.9 mph - N/A   Mostly Cloudy
4:46 PM 50.0 °F - 46.4 °F 87% 29.83 in 6.2 mi WNW 9.2 mph - N/A   Mostly Cloudy
5:00 PM 50 °F - 46 °F 81% 29.83 in 8 mi WNW 8.9 mph - -   Mostly Cloudy
5:11 PM 50.0 °F - 46.4 °F 87% 29.83 in 6.2 mi West 8.1 mph - N/A   Mostly Cloudy
5:25 PM 50.0 °F - 46.4 °F 87% 29.83 in 5.0 mi WNW 9.2 mph - N/A   Mostly Cloudy
5:31 PM 48.2 °F - 46.4 °F 93% 29.83 in 3.1 mi WNW 10.4 mph - N/A   Mostly Cloudy
6:01 PM 48.2 °F - 46.4 °F 93% 29.83 in - WNW 8.1 mph - N/A   Mostly Cloudy
6:11 PM 48.2 °F - 46.4 °F 93% 29.83 in - WNW 9.2 mph - N/A   Mostly Cloudy
6:25 PM 48.2 °F - 46.4 °F 93% 29.83 in - WNW 9.2 mph - N/A   Mostly Cloudy
7:16 PM 46.4 °F 41.5 °F 46.4 °F 100% 29.83 in - West 10.4 mph - N/A   Mostly Cloudy
7:25 PM 46.4 °F 41.5 °F 46.4 °F 100% 29.83 in 3.1 mi West 10.4 mph - N/A   Mostly Cloudy
8:00 PM 46 °F - 46 °F 98% 29.85 in 3 mi West 11.2 mph - - Fog Fog
8:16 PM 46.4 °F 42.4 °F 44.6 °F 93% 29.83 in 5.6 mi West 8.1 mph - N/A   Mostly Cloudy
8:25 PM 46.4 °F 41.9 °F 44.6 °F 93% 29.83 in 6.2 mi West 9.2 mph - N/A   Mostly Cloudy
8:36 PM 46.4 °F 42.4 °F 44.6 °F 93% 29.83 in 3.7 mi West 8.1 mph - N/A   Overcast
8:46 PM 46.4 °F 42.9 °F 44.6 °F 93% 29.83 in 4.3 mi West 6.9 mph - N/A   Overcast
9:21 PM 44.6 °F 39.2 °F 44.6 °F 100% 29.83 in 5.6 mi WNW 10.4 mph - N/A   Mostly Cloudy
9:25 PM 44.6 °F 39.2 °F 44.6 °F 100% 29.83 in 3.1 mi West 10.4 mph - N/A   Overcast
9:27 PM 44.6 °F 39.2 °F 44.6 °F 100% 29.83 in 3.7 mi WNW 10.4 mph - N/A   Overcast
9:39 PM 44.6 °F 39.2 °F 42.8 °F 93% 29.83 in 4.3 mi WNW 10.4 mph - N/A   Mostly Cloudy
9:56 PM 44.6 °F 40.7 °F 42.8 °F 93% 29.83 in 6.2 mi WNW 6.9 mph - N/A   Mostly Cloudy
10:02 PM 44.6 °F 40.7 °F 42.8 °F 93% 29.83 in 5.0 mi WNW 6.9 mph - N/A   Mostly Cloudy
10:25 PM 44.6 °F 40.7 °F 42.8 °F 93% 29.83 in 6.2 mi West 6.9 mph - N/A   Mostly Cloudy
11:00 PM 44 °F - 43 °F 95% 29.87 in 8 mi WNW 8.9 mph - - Rain Light Rain
11:25 PM 44.6 °F 39.2 °F 42.8 °F 93% 29.83 in 5.0 mi WNW 10.4 mph - N/A   Mostly Cloudy